| time (UTC) | temp F | wind direction | speed MPH | gust MPH | rain 1hr in | rain 24hr in | rain mn in | humidity % | barometer mb |
| 20260507133018 | 47 | 123 | 2.0 | 7.0 | 0.00 | 0.00 | 0.00 | 71 | 1013.1 |
| 20260507131515 | 46 | 79 | 0.0 | 2.0 | 0.00 | 0.00 | 0.00 | 71 | 1013.0 |
| 20260507130009 | 46 | 105 | 1.0 | 3.0 | 0.00 | 0.00 | 0.00 | 70 | 1013.1 |
| 20260507124505 | 48 | 294 | 0.0 | 4.0 | 0.00 | 0.00 | 0.00 | 66 | 1012.9 |
| 20260507123003 | 49 | 255 | 2.0 | 5.0 | 0.00 | 0.00 | 0.00 | 63 | 1012.9 |
| 20260507121603 | 49 | 261 | 2.0 | 6.0 | 0.00 | 0.00 | 0.00 | 64 | 1012.8 |
| 20260507120101 | 50 | 281 | 3.0 | 5.0 | 0.00 | 0.00 | 0.00 | 60 | 1012.7 |
| 20260507114610 | 53 | 287 | 2.0 | 6.0 | 0.00 | 0.00 | 0.00 | 56 | 1012.7 |
| 20260507113053 | 52 | 281 | 3.0 | 5.0 | 0.00 | 0.00 | 0.00 | 56 | 1012.6 |
| 20260507111552 | 52 | 303 | 2.0 | 5.0 | 0.00 | 0.00 | 0.00 | 58 | 1012.7 |
| 20260507110049 | 54 | 259 | 3.0 | 5.0 | 0.00 | 0.00 | 0.00 | 53 | 1012.8 |
| 20260507104548 | 54 | 323 | 1.0 | 3.0 | 0.00 | 0.00 | 0.00 | 53 | 1012.6 |
| 20260507103050 | 53 | 210 | 0.0 | 2.0 | 0.00 | 0.00 | 0.00 | 53 | 1012.6 |
| 20260507101645 | 54 | 281 | 1.0 | 2.0 | 0.00 | 0.00 | 0.00 | 51 | 1012.5 |
| 20260507100043 | 54 | 268 | 0.0 | 2.0 | 0.00 | 0.00 | 0.00 | 51 | 1012.7 |
| 20260507094554 | 56 | 354 | 1.0 | 5.0 | 0.00 | 0.00 | 0.00 | 48 | 1012.6 |
| 20260507093042 | 56 | 36 | 2.0 | 5.0 | 0.00 | 0.00 | 0.00 | 47 | 1012.6 |
| 20260507091540 | 55 | 355 | 0.0 | 6.0 | 0.00 | 0.00 | 0.00 | 49 | 1012.6 |
| 20260507090037 | 54 | 200 | 0.0 | 1.0 | 0.00 | 0.00 | 0.00 | 52 | 1012.6 |
| 20260507084539 | 55 | 240 | 0.0 | 2.0 | 0.00 | 0.00 | 0.00 | 51 | 1012.5 |
| 20260507083032 | 56 | 235 | 0.0 | 3.0 | 0.00 | 0.00 | 0.00 | 48 | 1012.6 |
| 20260507081536 | 58 | 82 | 0.0 | 2.0 | 0.00 | 0.00 | 0.00 | 47 | 1012.8 |
| 20260507080025 | 59 | 349 | 0.0 | 4.0 | 0.00 | 0.00 | 0.00 | 45 | 1012.8 |
| 20260507074522 | 60 | 291 | 3.0 | 8.0 | 0.00 | 0.00 | 0.00 | 43 | 1012.6 |
| 20260507073019 | 61 | 295 | 2.0 | 9.0 | 0.00 | 0.00 | 0.00 | 43 | 1012.7 |
| 20260507071519 | 61 | 297 | 3.0 | 12.0 | 0.00 | 0.00 | 0.00 | 43 | 1012.6 |
| 20260507070020 | 62 | 321 | 3.0 | 9.0 | 0.00 | 0.00 | 0.00 | 42 | 1012.6 |
| 20260507064515 | 62 | 18 | 4.0 | 10.0 | 0.00 | 0.00 | 0.00 | 42 | 1012.6 |
| 20260507063012 | 62 | 329 | 4.0 | 10.0 | 0.00 | 0.00 | 0.00 | 45 | 1012.3 |
| 20260507061511 | 60 | 307 | 2.0 | 5.0 | 0.00 | 0.00 | 0.00 | 50 | 1012.3 |
| 20260507060018 | 61 | 271 | 1.0 | 4.0 | 0.00 | 0.00 | 0.00 | 48 | 1012.2 |
| 20260507054511 | 61 | 217 | 0.0 | 1.0 | 0.00 | 0.00 | 0.00 | 49 | 1012.4 |
| 20260507053009 | 63 | 269 | 0.0 | 1.0 | 0.00 | 0.00 | 0.00 | 44 | 1012.4 |
| 20260507051513 | 64 | 276 | 1.0 | 8.0 | 0.00 | 0.00 | 0.00 | 42 | 1012.4 |
| 20260507050015 | 65 | 276 | 1.0 | 6.0 | 0.00 | 0.00 | 0.00 | 40 | 1012.4 |
| 20260507044507 | 65 | 296 | 3.0 | 6.0 | 0.00 | 0.00 | 0.00 | 39 | 1012.4 |
| 20260507043006 | 66 | 291 | 3.0 | 9.0 | 0.00 | 0.00 | 0.00 | 39 | 1012.4 |
| 20260507041505 | 67 | 302 | 4.0 | 8.0 | 0.00 | 0.00 | 0.00 | 37 | 1012.4 |
| 20260507034503 | 67 | 280 | 2.0 | 6.0 | 0.00 | 0.00 | 0.00 | 38 | 1012.2 |
| 20260507033004 | 67 | 293 | 3.0 | 6.0 | 0.00 | 0.00 | 0.00 | 39 | 1012.0 |
| 20260507031502 | 67 | 298 | 2.0 | 6.0 | 0.00 | 0.00 | 0.00 | 41 | 1011.9 |
| 20260507030001 | 67 | 167 | 0.0 | 2.0 | 0.00 | 0.00 | 0.00 | 44 | 1011.6 |
| 20260507024501 | 68 | 289 | 0.0 | 4.0 | 0.00 | 0.00 | 0.00 | 42 | 1011.7 |
| 20260507023000 | 69 | 312 | 1.0 | 5.0 | 0.00 | 0.00 | 0.00 | 39 | 1011.5 |
| 20260507021601 | 69 | 289 | 1.0 | 4.0 | 0.00 | 0.00 | 0.00 | 39 | 1011.5 |
| 20260507020103 | 70 | 274 | 2.0 | 7.0 | 0.00 | 0.00 | 0.00 | 38 | 1011.4 |
| 20260507014605 | 70 | 273 | 1.0 | 9.0 | 0.00 | 0.00 | 0.00 | 36 | 1011.3 |
| 20260507013103 | 71 | 294 | 9.0 | 15.0 | 0.00 | 0.00 | 0.00 | 36 | 1011.6 |
| 20260507011559 | 71 | 262 | 9.0 | 18.0 | 0.00 | 0.00 | 0.00 | 39 | 1011.5 |
| 20260507010056 | 71 | 273 | 7.0 | 16.0 | 0.00 | 0.00 | 0.00 | 43 | 1011.3 |
| 20260507004556 | 72 | 275 | 10.0 | 0.0 | 0.00 | 0.00 | 0.00 | 43 | 1011.3 |
| 20260507003101 | 73 | 315 | 9.0 | 12.0 | 0.00 | 0.00 | 0.00 | 42 | 1011.2 |
| 20260507001556 | 74 | 304 | 7.0 | 19.0 | 0.00 | 0.00 | 0.00 | 40 | 1011.2 |
| 20260507000054 | 73 | 293 | 10.0 | 20.0 | 0.00 | 0.00 | 0.00 | 39 | 1011.0 |
| 20260506234604 | 74 | 309 | 11.0 | 20.0 | 0.00 | 0.00 | 0.00 | 36 | 1010.9 |
| 20260506233056 | 75 | 309 | 7.0 | 17.0 | 0.00 | 0.00 | 0.00 | 37 | 1010.8 |
| 20260506231555 | 76 | 292 | 7.0 | 13.0 | 0.00 | 0.00 | 0.00 | 36 | 1010.6 |
| 20260506230049 | 77 | 292 | 6.0 | 14.0 | 0.00 | 0.00 | 0.00 | 32 | 1010.8 |
| 20260506224548 | 76 | 323 | 11.0 | 19.0 | 0.00 | 0.00 | 0.00 | 32 | 1010.9 |
| 20260506223046 | 77 | 255 | 8.0 | 15.0 | 0.00 | 0.00 | 0.00 | 32 | 1011.2 |
| 20260506221546 | 77 | 300 | 6.0 | 18.0 | 0.00 | 0.00 | 0.00 | 32 | 1011.3 |
| 20260506220046 | 76 | 276 | 10.0 | 18.0 | 0.00 | 0.00 | 0.00 | 33 | 1011.3 |
| 20260506214545 | 76 | 271 | 8.0 | 16.0 | 0.00 | 0.00 | 0.00 | 35 | 1011.2 |
| 20260506213042 | 76 | 323 | 9.0 | 20.0 | 0.00 | 0.00 | 0.00 | 35 | 1011.4 |
| 20260506211538 | 76 | 302 | 7.0 | 18.0 | 0.00 | 0.00 | 0.00 | 35 | 1011.5 |
| 20260506210037 | 76 | 325 | 10.0 | 19.0 | 0.00 | 0.00 | 0.00 | 36 | 1011.7 |
| 20260506204634 | 76 | 286 | 5.0 | 16.0 | 0.00 | 0.00 | 0.00 | 37 | 1011.7 |
| 20260506203039 | 75 | 289 | 9.0 | 16.0 | 0.00 | 0.00 | 0.00 | 36 | 1011.9 |
| 20260506201537 | 75 | 299 | 7.0 | 13.0 | 0.00 | 0.00 | 0.00 | 37 | 1011.9 |
| 20260506200030 | 75 | 298 | 7.0 | 12.0 | 0.00 | 0.00 | 0.00 | 37 | 1012.0 |
| 20260506194525 | 74 | 306 | 7.0 | 18.0 | 0.00 | 0.00 | 0.00 | 38 | 1012.2 |
| 20260506193023 | 74 | 262 | 8.0 | 15.0 | 0.00 | 0.00 | 0.00 | 38 | 1012.7 |
| 20260506191522 | 73 | 262 | 8.0 | 16.0 | 0.00 | 0.00 | 0.00 | 37 | 1012.9 |
| 20260506190019 | 73 | 290 | 7.0 | 17.0 | 0.00 | 0.00 | 0.00 | 39 | 1013.1 |
| 20260506184516 | 73 | 63 | 8.0 | 17.0 | 0.00 | 0.00 | 0.00 | 38 | 1013.1 |
| 20260506183014 | 73 | 240 | 6.0 | 13.0 | 0.00 | 0.00 | 0.00 | 40 | 1013.3 |
| 20260506181512 | 72 | 309 | 7.0 | 16.0 | 0.00 | 0.00 | 0.00 | 38 | 1013.2 |
| 20260506180013 | 71 | 243 | 6.0 | 12.0 | 0.00 | 0.00 | 0.00 | 43 | 1013.1 |
| 20260506174504 | 68 | 287 | 2.0 | 5.0 | 0.00 | 0.00 | 0.00 | 49 | 1013.3 |
| 20260506173002 | 65 | 143 | 1.0 | 5.0 | 0.00 | 0.00 | 0.00 | 54 | 1013.4 |
| 20260506171615 | 63 | 120 | 1.0 | 4.0 | 0.00 | 0.00 | 0.00 | 54 | 1013.7 |
| 20260506170056 | 61 | 5 | 0.0 | 5.0 | 0.00 | 0.00 | 0.00 | 56 | 1013.9 |
| 20260506164600 | 59 | 143 | 1.0 | 4.0 | 0.00 | 0.00 | 0.00 | 59 | 1014.0 |
| 20260506163104 | 59 | 57 | 2.0 | 5.0 | 0.00 | 0.00 | 0.00 | 58 | 1014.1 |
| 20260506161610 | 57 | 75 | 1.0 | 4.0 | 0.00 | 0.00 | 0.00 | 59 | 1014.2 |
| 20260506160047 | 56 | 13 | 0.0 | 2.0 | 0.00 | 0.00 | 0.00 | 59 | 1014.6 |
| 20260506154550 | 56 | 150 | 0.0 | 1.0 | 0.00 | 0.00 | 0.00 | 59 | 1014.8 |
| 20260506153047 | 54 | 290 | 0.0 | 2.0 | 0.00 | 0.00 | 0.00 | 63 | 1014.8 |
| 20260506151542 | 52 | 82 | 0.0 | 2.0 | 0.00 | 0.00 | 0.00 | 65 | 1015.0 |
| 20260506150041 | 50 | 326 | 0.0 | 1.0 | 0.00 | 0.00 | 0.00 | 70 | 1015.0 |
| 20260506144539 | 48 | 42 | 1.0 | 2.0 | 0.00 | 0.00 | 0.00 | 71 | 1015.1 |
| 20260506141532 | 44 | 86 | 0.0 | 2.0 | 0.00 | 0.00 | 0.00 | 79 | 1015.2 |
| 20260506140031 | 42 | 93 | 0.0 | 2.0 | 0.00 | 0.00 | 0.00 | 81 | 1015.3 |
| 20260506134529 | 40 | 71 | 0.0 | 2.0 | 0.00 | 0.00 | 0.00 | 84 | 1015.3 |